[[{"header":{"parameterUnit":"m.s-1","parameterCategory":1,"la1":30.2991,"la2":30.254,"lo1":-89.0895,"lo2":-89.0444,"dy":0.0017,"dx":0.0017,"nx":28,"ny":28,"refTime":"2025-03-03T09:00:00:Z","depth":0,"parameterNumber":2,"parameterNumberName":"U-component_of_WINDS"},"data":[0,0,0,0,0,0,0,0,0,0,0,0,0,0,0,0,0,0,0,0,0,0,0,0,0,0,0,0,0,0,0,0,0,0,0,0,0,0,0,0,0,0,0,0,0,0,0,0,0,0,0,0,0,0,0,0,0,0,-3.4004,-3.4005,0,-3.4041,-3.4042,-3.4042,-3.3909,-3.3905,-3.3901,-3.3897,-3.3938,-3.3943,-3.3947,0,0,0,0,0,0,0,0,0,0,0,0,0,-3.382,-3.3825,-3.4004,-3.4005,-3.4005,-3.4041,-3.4042,-3.4042,-3.391,-3.3905,-3.39,-3.3895,-3.3936,-3.3942,-3.3948,0,0,0,0,0,0,0,0,0,0,0,0,0,-3.3883,-3.3826,-3.4004,-3.3943,-3.3938,-3.4041,-3.4042,-3.4042,-3.3911,-3.3905,-3.3899,-3.3893,-3.3935,-3.3942,-3.3949,-3.4113,0,0,-3.3971,-3.3974,0,0,0,0,0,0,0,0,-3.388,-3.389,-3.3952,-3.3948,-3.3942,-3.3964,-3.3992,-3.4066,-3.3912,-3.3921,-3.3897,-3.389,-3.3952,-3.3957,-3.3977,-3.4115,-3.4116,-3.3971,-3.3976,-3.3979,-3.3981,0,0,0,0,0,0,0,-3.3876,-3.3888,-3.4019,-3.3953,-3.3947,-3.3915,-3.3917,-3.4005,-3.397,-3.392,-3.391,-3.3916,-3.3948,-3.3971,-3.3977,-3.4117,-3.3971,-3.3978,-3.3982,-3.3985,-3.439,-3.4396,0,0,0,0,0,0,-3.3879,-3.3885,-3.4018,-3.402,-3.3896,-3.3923,-3.3925,-3.3963,-3.3968,-3.3963,-3.3922,-3.391,-3.3961,-3.3969,-3.3978,-3.417,-3.3979,-3.3986,-3.399,-3.4383,-3.4391,-3.4398,0,0,0,0,0,0,-3.3876,-3.3892,-3.4016,-3.395,-3.3963,-3.3932,-3.3976,-3.3967,-3.399,-3.3969,-3.3963,-3.3951,-3.3957,-3.3968,-3.408,-3.417,-3.3989,-3.3995,-3.4376,-3.4386,-3.4395,-3.4556,0,0,0,0,0,0,-3.3871,-3.3892,-3.3954,-3.3952,-3.3967,-3.4117,-3.3981,-3.3972,-3.4002,-3.3988,-3.3995,-3.3991,-3.3953,-3.407,-3.4087,-3.4176,-3.4001,-3.4368,-3.438,-3.4392,-3.4543,-3.457,-3.4594,0,0,0,0,0,-3.3865,-3.3998,-3.3957,-3.3974,-3.4044,-3.4123,-3.4131,-3.4084,-3.401,-3.4072,-3.4059,-3.3991,-3.4157,-3.4082,-3.4101,-3.4194,-3.4362,-3.4377,-3.4391,-3.4531,-3.4565,-3.4593,0,0,0,0,0,0,-3.4012,-3.3997,-3.3952,-3.4089,-3.4108,-3.41,-3.4177,-3.4121,-3.4163,-3.4148,-3.4088,-3.4091,-3.4213,-3.4214,-3.4132,-3.4352,-3.4247,-3.4266,-3.4347,-3.4379,-3.4404,-3.4401,-3.4007,0,0,0,0,0,-3.4061,-3.4125,-3.4109,-3.4231,-3.4243,-3.4209,-3.4241,-3.4203,-3.4221,-3.4229,-3.4224,-3.4245,-3.4301,-3.434,-3.4391,-3.4542,-3.4541,-3.4615,-3.464,-3.4661,-3.4678,-3.4758,-3.479,-3.4446,-3.4446,-3.4445,0,0,-3.4162,-3.4161,-3.4206,-3.4261,-3.4271,-3.434,-3.4217,-3.4295,-3.4345,-3.4241,-3.4346,-3.4343,-3.4362,-3.4494,-3.4552,-3.4499,-3.4773,-3.4679,-3.4696,-3.4702,-3.4776,-3.4808,-3.4837,-3.4456,-3.4454,-3.4452,0,0,-3.438,-3.4387,-3.4489,-3.4502,-3.4518,-3.4494,-3.4519,-3.452,-3.4513,-3.4617,-3.454,-3.46,-3.4699,-3.4715,-3.4737,-3.496,-3.4899,-3.4979,-3.5112,-3.519,-3.5217,-3.5241,-3.5321,-3.535,-3.4996,-3.4996,-3.4996,0,-3.4504,-3.4604,-3.4549,-3.4632,-3.4658,-3.4566,-3.4669,-3.4684,-3.4718,-3.4738,-3.4677,-3.4799,-3.4805,-3.4939,-3.4994,-3.5014,-3.5041,-3.4978,-3.5218,-3.5241,-3.5262,-3.5338,-3.5368,-3.5006,-3.5005,-3.5004,-3.5003,0,-3.4755,-3.4825,-3.4906,-3.4939,-3.4974,-3.5068,-3.5027,-3.5069,-3.5028,-3.5011,-3.5117,-3.5121,-3.5171,-3.52,-3.5161,-3.5329,-3.5295,-3.5228,-3.512,-3.5306,-3.5375,-3.5404,-3.5019,-3.5016,-3.5013,-3.5011,0,0,-3.5069,-3.5069,-3.51,-3.5113,-3.5124,-3.5178,-3.5267,-3.5314,-3.5352,-3.5378,-3.5451,-3.5536,-3.5472,-3.5497,-3.5458,-3.5527,-3.5704,-3.545,-3.545,-3.5497,-3.5889,-3.5941,-3.5975,-3.5663,-3.5668,-3.5672,-3.5887,0,-3.5284,-3.5435,-3.5387,-3.554,-3.5604,-3.5516,-3.5593,-3.5608,-3.5594,-3.5647,-3.5631,-3.5693,-3.5604,-3.5618,-3.5682,-3.5669,-3.5782,-3.5653,-3.5731,-3.5734,-3.573,-3.6011,-3.6066,-3.6269,-3.5914,-3.5919,-3.5922,0,-3.5555,-3.559,-3.5749,-3.5748,-3.5773,-3.5844,-3.5883,-3.5934,-3.595,-3.5934,-3.5961,-3.5908,-3.5995,-3.5887,-3.6007,-3.592,-3.5949,-3.5947,-3.5954,-3.596,-3.584,-3.6026,-3.6332,-3.6363,-3.5965,-3.5961,-3.5958,0,-3.5769,-3.5856,-3.5961,-3.5976,-3.5977,-3.6029,-3.6032,-3.6041,-3.6073,-3.6107,-3.6127,-3.6172,-3.6197,-3.6233,-3.6193,-3.6118,-3.6319,-3.6207,-3.6309,-3.631,-3.6356,-3.6354,-3.6673,-3.6374,-3.6374,-3.6373,-3.6373,0,-3.6014,-3.6115,-3.6057,-3.6123,-3.6232,-3.6177,-3.6287,-3.6281,-3.629,-3.6352,-3.6279,-3.634,-3.6283,-3.6339,-3.6309,-3.6412,-3.6424,-3.6414,-3.6405,-3.6421,-3.6423,-3.644,-3.6425,-3.6381,-3.638,-3.6378,-3.6377,0,-3.6272,-3.6237,-3.6347,-3.6339,-3.6339,-3.642,-3.6413,-3.6474,-3.6453,-3.6534,-3.6549,-3.6518,-3.658,-3.6544,-3.6607,-3.6586,-3.6721,-3.6692,-3.6716,-3.6708,-3.6812,-3.6803,-3.7153,-3.7197,-3.6871,-3.6874,-3.6876,0,-3.6431,-3.6506,-3.6505,-3.6541,-3.6549,-3.6609,-3.6639,-3.6587,-3.6623,-3.6646,-3.6703,-3.6758,-3.6799,-3.6902,-3.6885,-3.6933,-3.6905,-3.7025,-3.6912,-3.6926,-3.6907,-3.6904,-3.6911,-3.7048,-3.7052,-3.7055,-3.7057,0,-3.6717,-3.6696,-3.6743,-3.6784,-3.6823,-3.6853,-3.6878,-3.6912,-3.6859,-3.6903,-3.6964,-3.6996,-3.706,-3.7116,-3.7156,-3.7159,-3.7101,-3.7093,-3.7119,-3.7136,-3.7147,-3.7143,-3.6778,-3.7085,-3.7083,-3.708,-3.7079,-3.7078,-3.693,-3.6992,-3.7001,-3.7056,-3.7068,-3.7093,-3.7148,-3.7135,-3.7184,-3.7231,-3.7198,-3.727,-3.7283,-3.7331,-3.7342,-3.7398,-3.735,-3.7388,-3.7398,-3.7408,-3.7422,-3.7137,-3.7406,-3.7405,-3.7404,-3.7403,-3.7403,0,-3.7212,-3.7213,-3.7264,-3.7299,-3.7343,-3.7282,-3.7305,-3.7346,-3.741,-3.7426,-3.7468,-3.7538,-3.7591,-3.7579,-3.7627,-3.7674,-3.7649,-3.7689,-3.7685,-3.7687,-3.7463,-3.7435,-3.7709,-3.7709,-3.7709,-3.7709,-3.7708,-3.7708,-3.7364,-3.7466,-3.7446,-3.7553,-3.7553,-3.7623,-3.7642,-3.7664,-3.7676,-3.7757,-3.7801,-3.7791,-3.7796,-3.7844,-3.789,-3.7885,-3.7906,-3.7956,-3.7942,-3.7733,-3.7703,-3.7674,-3.7648,-3.7961,-3.7962,-3.8161,-3.8163,-3.8164]},{"header":{"parameterUnit":"m.s-1","parameterCategory":1,"la1":30.2991,"la2":30.254,"lo1":-89.0895,"lo2":-89.0444,"dy":0.0017,"dx":0.0017,"nx":28,"ny":28,"refTime":"2025-03-03T09:00:00:Z","depth":0,"parameterNumber":3,"parameterNumberName":"V-component_of_WINDS"},"data":[0,0,0,0,0,0,0,0,0,0,0,0,0,0,0,0,0,0,0,0,0,0,0,0,0,0,0,0,0,0,0,0,0,0,0,0,0,0,0,0,0,0,0,0,0,0,0,0,0,0,0,0,0,0,0,0,0,0,-1.7304,-1.7304,0,-1.7331,-1.7331,-1.7332,-1.7347,-1.7347,-1.7348,-1.7348,-1.7374,-1.7374,-1.7375,0,0,0,0,0,0,0,0,0,0,0,0,0,-1.7263,-1.7264,-1.7304,-1.7304,-1.7305,-1.7331,-1.7331,-1.7332,-1.7347,-1.7347,-1.7348,-1.7348,-1.7373,-1.7374,-1.7375,0,0,0,0,0,0,0,0,0,0,0,0,0,-1.7284,-1.7264,-1.7304,-1.7316,-1.7317,-1.7331,-1.7331,-1.7332,-1.7347,-1.7347,-1.7348,-1.7348,-1.7373,-1.7374,-1.7375,-1.7379,0,0,-1.7378,-1.7378,0,0,0,0,0,0,0,0,-1.7283,-1.7286,-1.7314,-1.7315,-1.7316,-1.7336,-1.7326,-1.7347,-1.7347,-1.7336,-1.7348,-1.7348,-1.7361,-1.7363,-1.7368,-1.738,-1.7381,-1.7378,-1.7379,-1.7379,-1.7379,0,0,0,0,0,0,0,-1.7282,-1.7285,-1.7315,-1.7314,-1.7316,-1.7319,-1.7322,-1.733,-1.7347,-1.7337,-1.7338,-1.7341,-1.7362,-1.7367,-1.7368,-1.7382,-1.7378,-1.7379,-1.7379,-1.738,-1.7396,-1.7396,0,0,0,0,0,0,-1.7279,-1.7283,-1.7314,-1.7315,-1.73,-1.7319,-1.7323,-1.733,-1.7347,-1.735,-1.7341,-1.7342,-1.7365,-1.7367,-1.7369,-1.7374,-1.7379,-1.738,-1.738,-1.7396,-1.7396,-1.7396,0,0,0,0,0,0,-1.7278,-1.7281,-1.7313,-1.73,-1.7304,-1.732,-1.7327,-1.733,-1.7335,-1.7351,-1.7353,-1.7343,-1.7365,-1.7368,-1.7376,-1.7375,-1.738,-1.7381,-1.7396,-1.7396,-1.7396,-1.7383,0,0,0,0,0,0,-1.7276,-1.7281,-1.7283,-1.73,-1.7305,-1.732,-1.7327,-1.733,-1.7337,-1.7338,-1.7353,-1.7356,-1.7366,-1.7374,-1.7377,-1.7376,-1.7382,-1.7397,-1.7396,-1.7396,-1.7384,-1.7382,-1.7381,0,0,0,0,0,-1.7275,-1.7279,-1.7283,-1.7287,-1.7308,-1.732,-1.7322,-1.7334,-1.7337,-1.7339,-1.7348,-1.7355,-1.7375,-1.7375,-1.7378,-1.7378,-1.7397,-1.7396,-1.7396,-1.7384,-1.7383,-1.7381,0,0,0,0,0,0,-1.7262,-1.7281,-1.7286,-1.7296,-1.7306,-1.7322,-1.7325,-1.7332,-1.7341,-1.7342,-1.7355,-1.7358,-1.7365,-1.7372,-1.7372,-1.7381,-1.7386,-1.7387,-1.7376,-1.7375,-1.7374,-1.7372,-1.7383,0,0,0,0,0,-1.726,-1.7268,-1.7284,-1.7291,-1.7296,-1.7309,-1.7315,-1.7323,-1.7334,-1.7338,-1.7348,-1.7358,-1.7366,-1.7371,-1.7379,-1.7385,-1.7387,-1.7386,-1.7384,-1.7383,-1.7383,-1.7385,-1.7384,-1.7395,-1.7395,-1.7395,0,0,-1.7256,-1.7268,-1.7272,-1.7288,-1.7297,-1.7305,-1.7313,-1.7321,-1.7326,-1.7339,-1.7347,-1.7354,-1.7366,-1.7372,-1.7376,-1.7379,-1.7381,-1.7383,-1.7382,-1.7383,-1.7385,-1.7384,-1.7383,-1.7395,-1.7395,-1.7395,0,0,-1.7253,-1.7263,-1.7269,-1.7277,-1.729,-1.7299,-1.73,-1.7315,-1.7321,-1.7329,-1.7338,-1.7344,-1.7358,-1.7365,-1.7371,-1.7368,-1.7374,-1.737,-1.7364,-1.7366,-1.7365,-1.7364,-1.7362,-1.7361,-1.737,-1.737,-1.737,0,-1.7246,-1.7259,-1.7271,-1.7278,-1.7284,-1.7295,-1.73,-1.7308,-1.7323,-1.7326,-1.7329,-1.7346,-1.7355,-1.7362,-1.7361,-1.7366,-1.7366,-1.7369,-1.7364,-1.7364,-1.7363,-1.7361,-1.7361,-1.737,-1.737,-1.737,-1.737,0,-1.7249,-1.7257,-1.726,-1.7274,-1.7281,-1.7287,-1.7299,-1.7303,-1.731,-1.7318,-1.7325,-1.7336,-1.7346,-1.7348,-1.7355,-1.7356,-1.7357,-1.7362,-1.7367,-1.7361,-1.736,-1.7359,-1.7369,-1.7369,-1.7369,-1.7369,0,0,-1.724,-1.7259,-1.726,-1.7265,-1.728,-1.7286,-1.7291,-1.7301,-1.7304,-1.7314,-1.7318,-1.7328,-1.7333,-1.7339,-1.7346,-1.7348,-1.7343,-1.7353,-1.7353,-1.735,-1.7343,-1.7339,-1.7338,-1.7347,-1.7347,-1.7347,-1.7342,0,-1.7238,-1.725,-1.726,-1.7267,-1.7273,-1.7283,-1.7288,-1.7297,-1.7304,-1.731,-1.7317,-1.7324,-1.733,-1.7333,-1.7335,-1.7343,-1.7342,-1.7344,-1.735,-1.735,-1.7347,-1.7337,-1.7333,-1.7327,-1.7341,-1.7341,-1.7341,0,-1.7239,-1.7247,-1.7255,-1.7266,-1.7269,-1.7274,-1.7282,-1.7288,-1.7297,-1.7302,-1.7308,-1.7316,-1.732,-1.7325,-1.7331,-1.7332,-1.7335,-1.7339,-1.7339,-1.734,-1.7345,-1.7337,-1.7326,-1.7325,-1.734,-1.7341,-1.7341,0,-1.7229,-1.7243,-1.7249,-1.7253,-1.7267,-1.727,-1.7275,-1.7285,-1.7289,-1.7297,-1.7299,-1.7307,-1.7311,-1.7316,-1.7325,-1.7328,-1.733,-1.7336,-1.7333,-1.7333,-1.7333,-1.7333,-1.7322,-1.7336,-1.7336,-1.7336,-1.7336,0,-1.7226,-1.723,-1.7244,-1.7248,-1.7252,-1.7263,-1.7266,-1.7273,-1.7281,-1.7285,-1.7294,-1.7297,-1.7309,-1.7314,-1.732,-1.7324,-1.7326,-1.7329,-1.733,-1.7328,-1.7327,-1.733,-1.733,-1.7336,-1.7336,-1.7336,-1.7336,0,-1.7217,-1.7227,-1.7234,-1.7246,-1.7249,-1.7252,-1.7262,-1.7265,-1.7272,-1.7277,-1.7278,-1.7289,-1.7295,-1.7304,-1.7312,-1.7317,-1.7318,-1.7322,-1.7315,-1.7316,-1.7313,-1.7312,-1.7302,-1.7301,-1.7317,-1.7316,-1.7316,0,-1.7215,-1.7218,-1.723,-1.7233,-1.7239,-1.7244,-1.7249,-1.7259,-1.7263,-1.7272,-1.7274,-1.728,-1.7285,-1.7293,-1.7301,-1.7307,-1.731,-1.7306,-1.7311,-1.7308,-1.7309,-1.7308,-1.7308,-1.7305,-1.7305,-1.7305,-1.7305,0,-1.7209,-1.7213,-1.7219,-1.7226,-1.7231,-1.7237,-1.7243,-1.7245,-1.7256,-1.726,-1.7266,-1.727,-1.7278,-1.7283,-1.729,-1.7295,-1.7301,-1.7303,-1.7302,-1.7299,-1.7295,-1.7296,-1.7311,-1.7303,-1.7303,-1.7303,-1.7303,-1.7303,-1.7202,-1.7205,-1.7213,-1.7219,-1.7225,-1.723,-1.7233,-1.724,-1.7245,-1.7252,-1.7257,-1.7262,-1.7269,-1.7279,-1.7283,-1.7286,-1.7289,-1.7289,-1.7289,-1.7288,-1.7286,-1.7295,-1.7288,-1.7288,-1.7288,-1.7288,-1.7288,0,-1.7196,-1.7201,-1.7206,-1.7214,-1.7218,-1.7224,-1.7231,-1.7233,-1.7238,-1.7244,-1.7249,-1.7254,-1.7259,-1.7267,-1.7272,-1.7273,-1.7276,-1.7274,-1.7274,-1.7274,-1.7284,-1.7284,-1.7271,-1.7271,-1.7271,-1.7271,-1.7271,-1.7271,-1.7193,-1.7197,-1.7201,-1.7207,-1.7213,-1.7217,-1.7221,-1.7225,-1.723,-1.7235,-1.7239,-1.7244,-1.7251,-1.7256,-1.726,-1.7262,-1.7263,-1.726,-1.7263,-1.7272,-1.7274,-1.7275,-1.7275,-1.7261,-1.7261,-1.7253,-1.7253,-1.7253]}]]